Temp
26 25 25 26 28 28 26 27 26 29 30 27 27 27 27 28 28 28 29 30 31 31 30 34 32 31 31 31 30 30 31 30 30 29 27 27 27 27 27 27 27 28 27 25
25 25 27 28 28 28 29 28 29 30 29 28 28 27 28 28 28 29 30 30 29 30 29 32 31 30 30 30 30 29 29 28 28 28 28 29 28 28 28 28 28 28 26 24
25 26 27 27 28 28 28 28 29 30 30 29 28 27 27 27 27 29 29 30 30 30 30 31 30 29 29 29 29 28 28 27 27 27 28 28 28 28 28 28 28 27 26 23
26 28 27 28 28 29 28 30 30 30 29 27 28 25 27 27 27 28 28 30 30 31 30 30 30 29 28 28 28 27 26 26 26 26 27 27 27 27 28 28 28 27 26 26
26 27 27 27 28 29 28 31 30 30 29 28 28 27 29 28 27 28 30 31 30 30 30 29 28 28 28 26 25 25 25 25 25 26 26 25 26 27 27 28 28 26 25 25
28 30 29 29 30 30 30 29 29 29 29 26 28 28 28 29 28 28 28 29 29 30 29 29 28 27 26 26 24 23 23 23 23 23 24 23 23 24 25 25 25 24 24 23
27 28 30 30 29 29 29 28 25 25 26 26 29 28 29 31 30 29 28 27 27 29 27 28 28 26 25 24 24 23 23 22 22 22 22 22 22 23 23 23 22 23 23 23
26 25 29 30 29 28 28 28 26 25 26 27 30 28 30 31 31 30 28 27 27 27 27 26 27 25 24 24 24 23 23 22 22 22 22 21 21 21 21 21 22 22 22 23
27 27 30 30 30 30 28 28 29 26 25 26 29 28 30 30 29 29 28 28 27 27 27 26 25 25 24 23 23 23 22 22 22 21 21 21 20 20 20 20 21 21 22 21
28 27 29 29 29 30 29 30 27 27 23 22 27 27 27 28 28 28 27 27 27 27 27 28 28 26 25 24 23 23 23 22 21 21 20 20 20 20 20 19 19 19 20 20
27 27 25 29 27 28 28 26 28 29 29 26 22 19 29 28 28 28 28 27 27 27 28 28 27 26 25 25 23 22 22 22 22 21 20 20 20 19 19 19 19 19 19 18
28 26 26 27 29 29 29 28 28 26 26 27 23 24 23 28 27 28 28 27 27 27 27 27 27 26 25 24 24 23 22 21 22 21 21 20 20 19 19 18 18 18 17 17
27 24 23 24 23 28 27 28 29 28 26 26 25 19 26 28 26 24 27 26 27 26 26 26 26 25 25 24 23 23 22 22 21 20 20 20 19 18 18 18 17 17 17 17
25 25 23 21 23 26 25 27 28 26 22 24 26 23 25 26 26 25 27 27 27 26 26 26 25 25 24 23 23 22 21 21 20 19 19 19 18 18 17 17 17 17 17 16
25 23 24 23 19 23 25 26 27 25 26 23 25 24 23 23 23 27 27 26 26 26 26 25 24 24 23 23 22 21 21 20 19 19 18 18 17 17 17 17 17 17 16 16
24 22 21 21 24 24 23 24 24 25 25 23 23 23 24 25 27 26 26 26 24 25 25 24 24 24 23 22 21 20 19 19 18 18 17 17 17 17 17 17 17 16 16 16
21 17 18 18 20 23 22 24 25 26 26 26 25 26 27 26 25 25 25 25 25 25 24 24 23 22 21 21 20 19 18 18 17 17 17 16 16 16 16 16 16 15 14 13
20 15 16 20 19 20 23 25 25 26 26 26 26 26 26 25 25 26 26 24 23 22 22 22 22 21 20 20 19 18 18 17 17 16 16 16 16 15 15 14 13 12 11 10
23 22 20 20 21 23 23 23 24 24 24 25 24 25 25 24 24 21 22 22 21 21 21 20 20 20 19 19 18 18 17 16 16 15 15 15 14 13 12 10 9 8 7 7
24 22 21 22 21 21 21 23 24 24 20 23 23 23 22 23 21 20 21 20 20 20 19 19 19 19 19 18 17 16 16 15 15 14 14 12 10 9 8 7 6 6 5 4
21 21 20 21 21 19 22 22 23 21 18 21 21 21 21 20 21 19 20 19 19 19 19 19 19 19 19 17 16 16 15 14 13 10 9 8 7 6 5 5 3 2 1 1
20 19 19 20 20 18 22 22 20 19 20 21 21 20 19 19 19 19 19 19 19 19 19 19 19 18 17 16 15 14 13 9 8 7 6 6 5 4 3 1 0 0 1 1
20 21 19 20 19 21 20 20 20 20 20 20 19 19 19 19 18 19 19 19 19 18 18 17 17 16 15 14 11 9 8 7 5 4 4 3 2 0 -0 -0 1 0 1 1
21 22 21 20 20 20 20 20 20 20 20 19 19 18 19 18 18 18 17 17 17 16 16 15 14 13 11 9 8 7 5 4 2 2 2 -1 -1 -1 0 -0 -0 0 1 1
21 21 21 20 20 21 20 19 19 18 18 18 18 18 17 17 17 16 16 15 15 14 13 11 10 9 7 6 5 4 3 1 0 -0 -2 -2 -1 -1 -1 -1 -1 -0 0 0
22 21 21 17 19 19 18 19 18 17 17 17 16 16 16 16 15 15 14 13 11 10 9 7 6 5 4 3 2 2 1 -1 -2 -3 -2 -2 -2 -2 -2 -1 -1 -0 -0 0
Height
721 734 737 729 724 725 747 743 749 732 722 744 752 751 751 741 745 749 747 744 734 735 735 727 732 735 736 738 741 742 743 744 744 746 750 754 758 761 763 765 766 766 767 767
728 731 719 717 718 721 722 730 729 718 726 741 743 752 745 744 743 740 741 741 740 731 738 733 734 738 739 740 740 740 741 742 743 745 748 752 754 756 758 760 761 764 763 770
725 721 713 718 717 718 721 726 721 720 717 727 741 753 749 744 741 736 736 735 734 735 739 738 740 740 740 742 743 743 744 743 744 747 749 751 753 754 754 755 756 757 760 770
714 707 713 712 713 711 726 707 708 717 725 750 736 765 741 740 741 735 734 733 734 735 737 741 746 747 746 747 744 745 745 745 747 748 749 751 752 753 753 753 751 751 754 758
712 703 709 712 710 704 715 699 709 713 720 730 731 750 722 726 741 734 727 724 726 729 736 741 747 750 749 749 749 750 749 749 748 747 750 751 753 752 752 752 749 749 753 757
696 683 690 700 696 697 696 709 710 715 719 746 728 731 729 720 725 731 728 727 727 728 735 742 749 752 751 752 753 753 753 753 751 750 752 753 754 754 752 751 752 752 755 757
697 690 683 684 700 696 701 718 744 749 746 747 712 723 716 693 704 715 725 729 730 732 741 745 748 753 755 756 756 756 756 756 755 755 754 756 756 755 754 755 755 756 756 757
708 716 686 682 693 703 705 715 731 751 745 730 703 720 703 681 692 705 719 729 732 736 742 746 748 753 757 758 759 760 760 760 760 759 760 760 760 758 756 757 756 755 757 757
695 699 674 679 679 684 701 712 695 721 732 732 705 711 701 697 706 710 718 724 730 732 738 742 745 750 753 757 763 764 762 764 762 765 763 764 763 762 759 758 756 756 756 757
680 697 681 678 683 682 688 690 721 719 750 762 720 717 722 712 713 715 722 727 731 734 737 739 742 747 753 759 764 764 762 762 765 766 767 766 765 763 762 761 760 758 757 755
681 689 702 683 695 696 695 717 700 698 701 727 762 771 698 706 709 714 717 724 731 734 734 736 742 747 752 757 759 763 764 765 764 766 767 767 764 762 763 763 763 761 759 758
672 690 699 696 681 680 682 691 693 713 719 706 733 742 730 700 708 713 718 723 725 731 735 737 742 747 752 756 760 764 763 766 766 765 765 765 765 764 763 762 761 759 757 756
674 701 716 714 713 685 694 690 687 699 703 717 729 763 715 706 716 728 725 728 727 731 736 740 743 748 752 757 761 762 764 765 765 765 766 766 763 762 761 759 758 757 754 752
675 692 708 731 717 700 707 697 692 708 736 729 718 737 723 714 719 725 723 723 726 731 735 739 744 747 751 756 760 762 764 766 766 766 764 763 760 759 756 755 752 752 750 747
682 704 703 711 725 711 700 702 700 712 711 736 724 728 729 732 729 721 722 725 729 732 732 736 743 750 752 756 758 762 763 764 765 764 762 760 757 754 753 751 749 746 744 742
687 711 715 722 710 711 717 714 712 712 714 723 727 738 727 717 715 723 726 728 735 737 737 739 744 747 751 753 758 759 761 761 762 762 759 756 755 752 746 745 744 740 737 735
702 730 734 739 730 717 727 709 707 708 706 712 723 714 706 718 723 726 727 728 732 734 736 740 744 749 751 755 756 758 758 759 759 759 757 753 751 747 744 742 739 736 733 731
707 737 746 729 738 741 713 701 701 702 704 705 709 713 716 721 723 724 724 732 738 742 744 746 748 751 752 753 755 756 756 758 757 755 753 750 747 744 741 738 735 732 730 728
691 705 717 727 724 712 712 712 712 713 719 712 717 717 720 727 729 739 738 741 745 748 750 751 752 752 752 752 753 752 753 753 752 750 748 746 744 741 738 736 734 731 728 724
687 696 711 713 725 729 722 714 709 711 740 725 726 729 733 734 745 750 746 749 751 752 754 754 753 750 749 749 748 747 749 749 748 747 745 743 743 741 738 736 732 729 726 722
706 709 723 718 724 732 717 717 716 736 755 738 736 739 742 746 745 747 748 751 752 752 752 751 749 747 745 745 745 745 745 745 745 744 744 744 743 741 738 733 729 725 720 716
711 723 725 720 730 745 719 722 733 744 739 740 741 743 747 749 748 748 749 751 749 748 747 746 744 744 744 744 743 743 744 745 746 745 745 743 741 737 734 729 722 718 714 709
714 712 722 720 729 721 725 732 734 737 741 742 746 750 750 750 751 750 749 747 747 747 747 747 746 746 745 745 745 746 747 747 746 745 743 740 737 732 726 722 717 712 708 703
706 701 712 717 724 726 729 733 735 739 743 748 750 752 751 753 751 751 751 751 750 750 750 750 749 749 749 749 750 751 750 748 746 743 740 736 729 725 721 717 712 707 702 697
705 706 714 720 724 725 731 739 743 747 751 752 754 756 757 757 756 756 756 755 755 755 755 756 757 756 755 754 753 752 750 747 744 741 736 730 726 721 715 710 706 701 695 693
704 709 715 737 728 727 739 743 749 752 754 757 761 760 760 761 760 760 759 759 762 762 761 761 762 761 759 756 754 751 748 745 742 737 731 726 721 716 711 705 696 693 689 683
Wind_Speed
22 17 22 27 24 25 24 21 25 23 15 20 19 16 13 14 13 16 13 13 14 11 18 8 12 13 15 13 8 2 11 10 10 11 18 16 15 17 20 21 24 25 26 24
17 20 24 22 26 27 28 26 23 20 20 18 15 14 13 17 14 20 14 8 11 16 12 6 11 10 8 11 10 8 8 11 10 16 17 16 18 19 22 23 24 22 19 13
17 20 21 25 28 26 23 25 22 14 12 14 9 14 13 13 18 19 13 12 10 5 6 6 6 8 10 8 7 7 8 11 14 15 15 17 19 12 12 18 20 25 19 25
20 22 25 23 21 20 22 24 22 20 16 12 17 13 18 16 18 19 22 18 15 11 4 5 0 3 2 5 6 5 6 6 9 13 16 11 15 14 15 20 23 26 24 21
21 21 24 20 23 22 22 23 11 15 13 16 20 14 10 20 16 17 11 11 12 12 8 6 7 3 4 11 12 8 7 4 3 4 9 9 12 13 13 18 8 16 17 15
22 17 21 23 21 21 21 14 16 17 11 12 19 15 14 17 21 20 15 9 8 8 10 8 8 8 12 13 13 12 12 11 8 7 4 7 10 12 11 15 0 4 8 10
18 21 19 18 19 15 15 11 8 9 10 13 18 16 14 12 23 22 19 12 7 3 9 4 7 12 13 13 12 13 15 16 16 17 17 14 13 8 8 6 9 5 7 13
16 13 22 15 16 21 22 18 11 17 11 16 18 17 15 12 20 19 18 15 13 10 12 8 9 14 12 12 13 13 15 14 14 14 13 14 12 16 16 14 12 15 13 13
17 12 18 17 18 16 19 18 20 11 14 10 11 13 13 19 19 21 18 15 15 8 9 11 10 17 18 14 7 7 10 9 9 9 10 10 13 14 13 11 10 12 11 12
9 9 18 15 13 17 17 13 16 9 16 4 4 14 11 18 19 20 18 14 9 7 8 7 4 9 7 11 8 4 5 4 5 6 6 8 8 10 11 12 13 14 15 17
11 10 14 13 13 19 10 13 13 14 11 10 4 5 8 16 15 15 16 15 12 7 7 8 7 11 5 4 10 5 4 7 3 5 6 6 8 10 10 11 12 12 13 14
12 6 13 16 16 16 16 14 11 7 12 7 5 8 3 4 10 9 14 14 12 7 3 6 4 6 4 3 4 2 2 7 5 6 8 10 9 11 12 12 14 16 17 17
12 1 8 7 9 15 10 13 11 12 4 9 6 1 9 11 15 10 9 7 6 9 8 5 2 4 7 3 3 6 6 9 9 10 12 14 12 13 15 16 17 18 19 20
5 3 9 7 6 9 16 16 8 5 2 6 11 15 18 6 12 9 8 8 5 9 7 4 4 3 3 4 5 7 8 12 12 16 18 17 18 18 20 23 22 22 22 22
3 4 2 3 5 8 8 10 12 10 6 9 13 7 9 6 8 2 3 3 6 8 7 2 5 4 4 5 5 10 10 11 15 18 19 20 22 22 23 23 24 24 25 25
4 3 6 1 6 1 4 7 10 10 10 6 10 14 21 17 6 3 2 4 1 6 3 1 4 6 7 6 8 11 11 12 16 19 21 22 24 25 24 25 25 26 26 24
6 4 3 3 10 8 11 14 11 10 9 11 10 1 7 9 4 2 3 1 3 4 3 2 5 5 7 8 9 10 13 16 18 20 23 24 25 25 25 24 23 23 24 24
11 9 10 7 17 7 8 10 6 8 10 9 5 4 8 4 2 3 6 11 12 13 11 9 8 10 11 12 12 13 15 16 19 21 23 24 25 25 24 25 25 24 22 22
11 13 3 4 6 9 11 5 4 4 9 12 9 5 9 11 7 14 13 13 11 10 8 9 13 14 13 14 16 15 14 18 19 21 24 25 24 26 24 24 25 27 27 28
6 6 2 3 3 6 9 8 5 1 8 8 6 8 10 8 3 9 10 8 6 6 8 14 16 15 14 14 14 11 15 17 19 21 22 21 22 25 26 27 28 26 23 24
8 7 5 5 3 6 10 7 0 5 5 7 7 7 7 6 8 12 12 11 10 12 12 15 19 17 13 11 14 14 16 17 18 18 19 20 23 25 25 24 23 31 36 32
8 5 4 3 3 3 7 3 3 6 3 6 6 7 10 11 12 12 10 10 10 12 15 19 18 18 19 20 18 17 16 20 20 20 21 23 24 23 24 34 33 27 26 25
5 6 5 3 4 9 13 12 9 5 3 6 10 9 8 8 8 10 10 12 13 19 20 22 21 21 20 21 23 22 22 23 22 22 23 24 25 34 27 26 25 28 23 22
5 9 4 7 12 9 9 9 5 7 8 8 7 6 10 10 12 13 14 14 14 19 19 21 22 22 21 25 24 22 23 21 20 22 24 27 26 26 24 24 23 24 23 21
4 7 11 12 12 11 12 12 8 13 10 7 8 11 11 12 12 13 12 13 17 19 21 22 22 22 23 24 23 22 23 19 22 23 27 25 22 25 26 24 24 25 27 24
2 6 2 7 8 10 11 10 13 8 9 10 9 9 11 12 11 13 12 17 20 20 22 21 21 21 21 21 21 22 20 20 23 27 22 23 24 23 24 24 28 25 26 29
Wind_Direction
197 206 208 216 224 228 214 206 222 235 193 185 211 223 235 227 222 213 248 272 273 272 306 34 39 6 347 333 338 332 231 245 215 181 182 199 222 227 226 234 241 237 223 208
191 213 210 212 221 223 215 215 227 232 187 198 199 231 240 254 220 218 217 274 258 265 288 36 22 349 338 327 315 292 273 251 248 220 219 226 217 225 229 229 234 232 202 271
195 200 219 211 225 215 222 235 236 235 175 184 215 234 234 229 250 219 218 251 274 183 138 321 29 12 336 314 307 315 277 259 246 236 228 234 254 262 254 231 234 225 217 208
207 207 214 210 222 218 219 228 241 213 191 218 198 243 208 212 219 204 221 199 179 200 161 112 150 37 27 338 14 348 306 285 247 238 243 252 229 234 246 255 227 208 217 213
213 208 198 217 213 209 231 219 221 241 216 212 207 219 240 188 209 212 219 210 185 153 173 120 74 13 46 53 44 33 11 5 287 322 247 290 301 263 271 291 246 186 191 220
216 216 211 203 217 223 228 233 195 234 230 211 239 204 235 193 197 200 210 139 93 108 113 127 103 72 45 65 67 57 55 44 32 18 338 312 321 324 301 300 164 176 215 231
217 214 218 193 213 203 216 210 208 202 227 239 227 212 235 188 182 191 185 133 128 155 101 65 102 81 74 63 79 75 65 55 45 42 47 46 35 10 333 341 10 265 234 221
207 215 188 189 208 200 201 207 217 199 211 229 232 215 230 136 179 154 134 146 166 152 147 149 115 125 96 60 62 77 66 63 56 52 47 33 22 32 33 30 14 11 19 26
206 206 185 192 219 216 191 220 236 305 295 254 234 99 100 124 128 142 147 146 159 148 130 153 146 142 127 103 62 81 86 73 61 49 40 31 14 10 6 358 358 344 339 338
239 213 193 176 210 232 227 210 228 216 253 346 222 155 167 164 157 151 154 153 130 147 171 176 119 100 73 130 145 85 57 71 60 33 17 12 2 357 349 345 339 329 319 306
220 255 204 173 197 218 189 232 254 244 246 230 158 330 295 166 166 167 150 149 144 166 189 170 173 137 181 176 115 84 6 333 22 6 342 335 339 335 325 322 314 308 303 300
158 318 167 203 189 230 236 226 233 244 253 306 77 132 79 84 127 158 162 155 151 132 37 330 58 81 43 91 340 318 115 303 304 331 328 320 312 306 304 299 296 296 294 293
140 342 187 176 316 229 233 235 253 223 346 256 251 270 283 164 155 160 226 116 184 170 172 236 167 242 195 219 250 290 330 324 328 323 312 304 310 305 301 298 295 291 290 288
77 173 174 203 187 237 213 238 227 123 119 267 251 152 191 143 135 164 200 185 220 148 180 198 219 322 231 231 279 296 310 313 329 325 312 310 312 309 304 295 291 288 285 284
122 206 175 138 81 288 265 243 235 239 267 196 256 2 331 80 288 122 77 354 321 317 316 238 163 224 315 315 316 291 299 320 318 308 307 309 308 304 300 296 292 288 286 284
129 147 71 98 224 243 154 214 248 254 237 315 284 266 179 192 101 65 230 158 274 278 272 184 220 240 262 305 338 333 322 319 315 311 306 302 302 298 299 297 294 290 288 288
120 94 74 279 281 231 227 228 223 229 233 215 227 262 87 89 103 175 219 214 218 236 242 332 355 0 25 337 319 330 331 316 307 306 305 303 304 303 301 303 307 309 309 306
135 115 182 194 192 209 88 39 18 224 210 209 234 44 55 30 327 262 12 36 40 32 25 7 358 350 327 320 321 323 317 310 307 303 302 304 304 305 312 314 313 318 323 321
183 190 201 143 185 124 130 116 98 147 93 49 53 78 75 48 8 60 37 40 26 11 352 339 330 318 330 325 320 310 311 308 309 309 306 307 313 316 321 325 325 320 315 308
135 49 158 208 201 208 104 101 72 35 95 54 55 41 22 14 296 69 48 2 356 343 333 314 297 292 294 302 304 333 317 312 311 310 313 323 331 324 321 315 310 305 304 301
169 143 162 220 205 68 111 101 136 209 106 59 29 22 354 325 359 10 14 360 343 325 308 295 292 298 309 334 340 332 324 320 334 342 333 325 320 315 308 307 306 304 299 292
159 120 184 204 168 154 124 121 35 111 100 35 10 9 23 5 352 335 339 323 308 300 317 322 325 334 342 341 346 337 338 1 344 334 324 319 315 311 307 305 299 292 288 287
156 156 176 161 124 103 88 94 100 73 32 23 39 22 356 342 338 316 319 329 336 337 341 338 334 331 338 350 13 1 349 342 333 325 317 312 310 307 300 293 294 295 291 284
94 131 117 125 134 124 104 95 75 56 50 42 24 357 358 347 336 339 338 338 336 337 339 338 339 338 350 353 346 344 337 335 330 321 315 313 304 303 302 299 294 291 289 287
43 163 165 121 136 132 104 76 56 61 56 36 22 6 351 350 344 343 342 342 341 342 347 353 347 339 336 336 334 335 332 332 327 321 313 307 307 307 304 298 293 288 285 281
134 54 192 111 65 92 109 102 90 68 43 32 3 351 5 0 355 354 346 354 3 350 348 345 340 335 333 333 333 329 331 335 328 313 310 309 307 305 302 301 303 297 290 297